Regional Weather Roundup
Issued by NWS Newport/Morehead, NC

Current Version | Previous Version | Text Only | Print | Product List | Glossary Off
Versions: 1 2 3 4 5 6 7 8 9 10 11 12 13 14 15 16 17 18 19 20 21 22 23 24 25 26 27 28 29 30 31 32 33 34 35 36 37 38 39 40 41 42 43 44 45 46 47 48 49 50
000 ASUS42 KMHX 291713 RWRMHX WEATHER ROUNDUP FOR EASTERN NORTH CAROLINA NATIONAL WEATHER SERVICE NEWPORT/MOREHEAD CITY NC 100 PM EDT WED JUL 29 2015 NOTE: "FAIR" INDICATES FEW OR NO CLOUDS BELOW 12,000 FEET WITH NO SIGNIFICANT WEATHER AND/OR OBSTRUCTIONS TO VISIBILITY NCZ015>017-031-032-045>047-102-103-291800- NORTH COAST CITY SKY/WX TMP DP RH WIND PRES REMARKS EDENTON N/A 86 71 60 E6 30.02F ELIZABETH CITY MOSUNNY 87 69 54 SE7 30.03F KITTY HAWK SUNNY 89 70 53 E7 30.01F MANTEO SUNNY 84 71 65 SE7 30.03S $$ NCZ045>047-081-094-103-104-291800- CENTRAL COAST CITY SKY/WX TMP DP RH WIND PRES REMARKS FRISCO MOSUNNY 87 71 58 E13 30.01F SWANQUARTER N/A 90 N/A N/A SE3G14 29.97S $$ NCZ095-097-098-100-101-291800- SOUTHERN COAST CITY SKY/WX TMP DP RH WIND PRES REMARKS BEAUFORT SUNNY 85 73 67 NE9 30.00F CEDAR ISLAND N/A 86 N/A N/A NE10 30.06S JACKSONVILLE MOSUNNY 89 71 55 SE8 30.00S PINEY ISLAND SUNNY N/A N/A N/A MISG 30.01F WILMINGTON SUNNY 88 70 55 NE13 30.00F $$ NCZ011>013-027>030-043-044-078>080-089-090>093-098-291800- COASTAL PLAIN CITY SKY/WX TMP DP RH WIND PRES REMARKS AHOSKIE MOSUNNY 86 70 59 SW3 30.02F CLINTON SUNNY 90 72 56 E6 30.01F ELIZABETHTOWN MOSUNNY 89 69 51 SE3 30.00F GOLDSBORO MOSUNNY 86 71 61 CALM 30.00F GREENVILLE MOSUNNY 90 70 51 E5 30.03F HAVELOCK SUNNY 88 72 58 NE13 30.01F KENANSVILLE MOSUNNY 86 68 54 N3 30.02F KINSTON MOSUNNY 90 70 51 E6 30.01F NEW BERN SUNNY 89 67 47 E8 30.02F RICHLANDS MOSUNNY 90 70 51 NE6 30.00F ROCKY MOUNT PTSUNNY 88 68 51 VRB3 30.02F WASHINGTON SUNNY 87 72 61 E7 30.02F WHITEVILLE MOSUNNY 88 69 54 CALM 30.00S $$ AMZ130-135-150-152-154-156-158-170-250-252-270-ANZ085-086-088-633-658-670-291800- MARINE OBSERVATIONS STATION/POSITION TIME TEMP WIND PRES WAVE SWELL AIR SEA DIR/SP/G HT/PER HT/PER (UTC) (F) (DEG/KT/KT) (MB) (FT/S) (FT/S) CHESAPEAKE LIGHT 1700 80 170/ 7/ 7 1017.8 64 E VA BEACH 1650 81 83 170/ 6/ 6 1016.8 2/ 6 2/ 6 DUCK 1600 81 66 130/ 9/ 10 1016.4 2 E DUCK 1611 79 N/A 2/ 9 OREGON INLET 1600 82 83 80/ 8/ 11 1017.1 13E OREGON INLT 1700 81 N/A 3/ 7 HATTERAS CG 1600 83 82 80/ 7/ 12 1016.2 DIAMOND BUOY NOT AVBL CAPE LOOKOUT 1700 81 60/ 13/ 14 1015.6 BEAUFORT LAB 1600 83 81 70/ 9/ 14 1015.6 30 SE NEW RVR IN NOT AVBL 27 SE WRIGHTSVLE 1600 79 82 60/ 12/ 14 N/A 5 SE WRIGHTSVLE 1608 82 82 70/ 10/ 14 1016.1 225 S CAPE HAT 1650 83 81 230/ 14/ 16 1015.3 6/ 6 3/10 41 SE CHARLESTON 1650 83 85 30/ 12/ 14 1014.6 3/ 7 2/ 7 $$

USA.gov is the U.S. government's official web portal to all federal, state and local government web resources and services.